Weather in Ibragimova

Russia / Chelyabinsk Oblast     55°44′41″N   61°10′48″E
temp.,
°C
wind,
m/s
gust,
m/s
humid.,
%
clouds,
%
prec.,
mm/h
press.,
hPa
HPBL,
m
10 april, sat
sat1023:00+2s35100100 0.0 1030103
02:00+1sse3599100 0.0 1031122
05:00+1sse3794100 0.0 1032129
08:00+2s410100100 0.0 1033213
11:00+3s512100100 0.0 1034271
14:00+5s611100100 0.0 1034325
17:00+6s61199100 0.0 1035336
20:00+5s61195100 0.0 1036341
11 april, sun
sun1123:00+4s51297100 0.0 1036359
02:00+3s61397100 0.0 1036366
05:00+2s6149460 0.0 1036320
08:00+2s61586100 0.0 1036357
11:00+7s8127684 0.0 1035415
14:00+11ssw81171100 0.0 1034602
17:00+11ssw7117628 0.0 1033481
20:00+8ssw5108623 0.0 1034205
12 april, mon
mon1223:00+6sw359172 0.0 103472
02:00+7sw338559 0.0 103426
05:00+7w338492 0.0 103528
08:00+8nw2484100 0.0 1035100
11:00+9nnw3586100 0.3 1036284
14:00+11n3483100 0.0 1036494
17:00+10n3486100 0.1 1037340
20:00+8nne2393100 0.1 1037117
13 april, tue
tue1323:00+8ene1188100 0.1 103815
02:00+7ene2286100 0.0 103839
05:00+7ese2285100 0.0 103842
08:00+7se238398 0.0 1038145
11:00+11s347221 0.0 1037560
14:00+14s456892 0.0 10361026
17:00+14ssw556956 0.0 1034948
20:00+11s378319 0.0 1034136
14 april, wed
wed1423:00+9ssw3789100 0.0 1033139
02:00+8sw359076 0.0 103276
05:00+8w33865 0.0 103125
08:00+10w36829 0.0 1031154
11:00+15wnw34606 0.0 1029552
14:00+18w45385 0.0 10281242
17:00+18wnw46385 0.0 10261472
20:00+12wnw34536 0.0 102644